Precipitable_Water
0.73 0.74 0.73 0.72 0.70 0.67 0.63 0.59 0.56 0.55 0.58 0.60 0.58 0.55 0.54 0.50 0.47 0.49 0.47 0.45 0.42 0.39 0.38 0.35 0.34 0.32 0.31 0.29 0.27 0.26 0.23 0.15 0.13 0.12 0.11 0.15 0.21 0.23 0.23 0.25 0.26 0.29 0.30 0.25 0.22 0.21 0.17 0.18 0.18 0.21 0.17 0.18 0.17 0.17 0.20 0.20 0.22 0.19 0.13 0.11 0.09 0.09 0.08 0.11 0.09 0.09 0.11 0.09 0.12 0.13 0.14 0.15 0.15 0.20 0.21 0.23 0.21 0.21 0.21 0.20 0.22 0.23 0.22 0.23 0.23 0.24 0.23 0.23
0.71 0.73 0.72 0.71 0.68 0.65 0.60 0.56 0.55 0.56 0.59 0.62 0.59 0.56 0.52 0.46 0.46 0.47 0.46 0.43 0.38 0.35 0.34 0.32 0.32 0.31 0.30 0.28 0.28 0.26 0.21 0.15 0.11 0.11 0.12 0.19 0.23 0.24 0.24 0.24 0.25 0.27 0.27 0.19 0.18 0.18 0.16 0.15 0.17 0.19 0.16 0.14 0.19 0.15 0.20 0.16 0.19 0.14 0.12 0.10 0.07 0.10 0.10 0.12 0.11 0.12 0.11 0.11 0.13 0.14 0.15 0.15 0.15 0.17 0.22 0.18 0.18 0.18 0.17 0.19 0.19 0.18 0.20 0.21 0.23 0.22 0.22 0.21
0.69 0.71 0.69 0.69 0.66 0.63 0.58 0.54 0.54 0.54 0.57 0.59 0.59 0.53 0.50 0.46 0.47 0.48 0.45 0.40 0.37 0.33 0.32 0.31 0.30 0.29 0.28 0.28 0.28 0.27 0.22 0.16 0.10 0.09 0.13 0.20 0.22 0.21 0.22 0.23 0.25 0.27 0.23 0.18 0.20 0.21 0.20 0.19 0.20 0.19 0.17 0.15 0.17 0.13 0.16 0.14 0.16 0.12 0.09 0.08 0.09 0.12 0.10 0.12 0.13 0.12 0.13 0.13 0.11 0.13 0.16 0.16 0.18 0.18 0.23 0.17 0.17 0.18 0.15 0.15 0.17 0.16 0.16 0.18 0.20 0.21 0.21 0.21
0.66 0.68 0.68 0.66 0.64 0.61 0.56 0.55 0.53 0.54 0.56 0.57 0.55 0.53 0.50 0.49 0.49 0.46 0.43 0.39 0.36 0.32 0.32 0.31 0.30 0.28 0.30 0.29 0.30 0.28 0.22 0.18 0.07 0.11 0.15 0.19 0.20 0.21 0.21 0.22 0.25 0.25 0.26 0.24 0.24 0.23 0.24 0.24 0.22 0.20 0.17 0.15 0.15 0.15 0.13 0.16 0.14 0.12 0.09 0.08 0.10 0.12 0.10 0.11 0.13 0.13 0.13 0.13 0.12 0.14 0.16 0.15 0.18 0.21 0.20 0.18 0.15 0.15 0.17 0.18 0.15 0.15 0.16 0.18 0.19 0.19 0.20 0.20
0.65 0.65 0.65 0.65 0.62 0.58 0.57 0.54 0.50 0.54 0.54 0.56 0.55 0.54 0.52 0.52 0.49 0.44 0.41 0.40 0.37 0.34 0.32 0.29 0.27 0.30 0.30 0.30 0.31 0.30 0.20 0.06 0.07 0.13 0.16 0.18 0.20 0.20 0.21 0.22 0.23 0.23 0.23 0.23 0.24 0.22 0.21 0.19 0.20 0.18 0.17 0.13 0.14 0.13 0.15 0.16 0.15 0.12 0.10 0.11 0.12 0.13 0.10 0.13 0.14 0.15 0.14 0.14 0.13 0.14 0.13 0.14 0.19 0.19 0.19 0.18 0.13 0.13 0.16 0.19 0.19 0.19 0.19 0.17 0.17 0.19 0.20 0.20
0.62 0.63 0.65 0.64 0.59 0.58 0.57 0.51 0.48 0.51 0.54 0.55 0.56 0.56 0.52 0.47 0.42 0.36 0.35 0.37 0.37 0.34 0.30 0.28 0.29 0.28 0.28 0.24 0.23 0.27 0.26 0.05 0.10 0.12 0.18 0.18 0.20 0.20 0.21 0.22 0.22 0.21 0.20 0.19 0.17 0.17 0.16 0.16 0.16 0.13 0.13 0.12 0.11 0.10 0.15 0.18 0.20 0.10 0.13 0.13 0.13 0.13 0.12 0.14 0.15 0.15 0.15 0.13 0.13 0.13 0.15 0.17 0.17 0.17 0.19 0.18 0.16 0.18 0.22 0.22 0.21 0.20 0.20 0.19 0.20 0.19 0.19 0.19
0.61 0.62 0.64 0.60 0.58 0.57 0.54 0.50 0.48 0.51 0.51 0.53 0.55 0.54 0.46 0.40 0.37 0.35 0.34 0.33 0.33 0.32 0.28 0.28 0.27 0.25 0.20 0.23 0.16 0.11 0.08 0.09 0.13 0.15 0.17 0.19 0.21 0.20 0.20 0.22 0.21 0.18 0.17 0.16 0.16 0.15 0.16 0.14 0.15 0.14 0.13 0.13 0.13 0.13 0.15 0.15 0.17 0.14 0.10 0.14 0.13 0.13 0.12 0.15 0.15 0.16 0.16 0.15 0.13 0.16 0.18 0.16 0.16 0.14 0.20 0.17 0.21 0.21 0.22 0.22 0.21 0.20 0.20 0.20 0.19 0.19 0.20 0.20
0.60 0.61 0.60 0.57 0.57 0.55 0.53 0.51 0.49 0.49 0.50 0.52 0.53 0.49 0.41 0.36 0.33 0.32 0.31 0.30 0.29 0.28 0.27 0.25 0.24 0.23 0.23 0.20 0.15 0.08 0.09 0.09 0.14 0.18 0.18 0.20 0.20 0.20 0.20 0.21 0.20 0.17 0.16 0.16 0.15 0.14 0.15 0.13 0.14 0.16 0.13 0.11 0.12 0.13 0.16 0.14 0.14 0.11 0.12 0.15 0.15 0.15 0.15 0.15 0.16 0.16 0.16 0.17 0.18 0.17 0.16 0.15 0.17 0.16 0.19 0.18 0.20 0.21 0.21 0.21 0.21 0.20 0.20 0.20 0.20 0.20 0.20 0.20
0.59 0.56 0.56 0.54 0.55 0.55 0.53 0.54 0.51 0.50 0.49 0.49 0.49 0.46 0.37 0.30 0.29 0.29 0.28 0.25 0.25 0.24 0.24 0.24 0.25 0.27 0.28 0.20 0.15 0.09 0.08 0.14 0.18 0.18 0.19 0.19 0.19 0.19 0.20 0.18 0.18 0.15 0.16 0.17 0.17 0.15 0.16 0.15 0.16 0.16 0.10 0.12 0.16 0.14 0.17 0.14 0.10 0.12 0.14 0.16 0.15 0.15 0.16 0.16 0.16 0.16 0.16 0.17 0.17 0.15 0.15 0.17 0.18 0.21 0.17 0.20 0.20 0.21 0.21 0.20 0.20 0.20 0.20 0.20 0.20 0.20 0.20 0.21
0.57 0.55 0.53 0.52 0.52 0.55 0.53 0.52 0.50 0.50 0.49 0.47 0.44 0.39 0.33 0.29 0.27 0.27 0.26 0.25 0.24 0.23 0.22 0.21 0.24 0.24 0.21 0.18 0.12 0.07 0.12 0.19 0.19 0.20 0.19 0.20 0.19 0.18 0.18 0.18 0.16 0.15 0.15 0.17 0.18 0.17 0.16 0.16 0.17 0.17 0.15 0.14 0.15 0.13 0.16 0.16 0.11 0.17 0.16 0.15 0.14 0.15 0.15 0.16 0.15 0.16 0.16 0.17 0.17 0.14 0.14 0.16 0.19 0.18 0.14 0.21 0.21 0.21 0.20 0.19 0.20 0.20 0.19 0.20 0.20 0.21 0.21 0.21
0.57 0.55 0.53 0.54 0.55 0.55 0.52 0.48 0.48 0.47 0.45 0.42 0.40 0.36 0.32 0.27 0.26 0.27 0.25 0.25 0.24 0.22 0.22 0.23 0.19 0.19 0.15 0.13 0.08 0.08 0.18 0.19 0.20 0.20 0.19 0.20 0.19 0.17 0.16 0.17 0.17 0.16 0.17 0.18 0.18 0.21 0.20 0.20 0.20 0.19 0.18 0.14 0.18 0.15 0.15 0.14 0.17 0.18 0.17 0.15 0.15 0.15 0.15 0.15 0.16 0.16 0.16 0.16 0.18 0.15 0.14 0.16 0.17 0.18 0.15 0.19 0.21 0.21 0.19 0.19 0.19 0.20 0.20 0.20 0.21 0.21 0.22 0.22
0.54 0.54 0.55 0.57 0.59 0.56 0.52 0.47 0.46 0.44 0.42 0.38 0.34 0.31 0.31 0.30 0.26 0.24 0.23 0.24 0.24 0.22 0.22 0.23 0.26 0.17 0.13 0.11 0.10 0.11 0.20 0.19 0.21 0.20 0.20 0.20 0.19 0.19 0.19 0.18 0.19 0.19 0.19 0.17 0.18 0.21 0.22 0.21 0.22 0.17 0.13 0.20 0.13 0.17 0.15 0.20 0.19 0.18 0.18 0.13 0.15 0.15 0.14 0.15 0.14 0.16 0.17 0.16 0.18 0.17 0.15 0.14 0.15 0.14 0.18 0.20 0.21 0.20 0.20 0.19 0.19 0.20 0.20 0.20 0.21 0.22 0.22 0.22
0.49 0.55 0.62 0.61 0.58 0.53 0.48 0.45 0.43 0.38 0.37 0.32 0.27 0.25 0.26 0.25 0.23 0.23 0.24 0.20 0.20 0.20 0.22 0.23 0.23 0.23 0.16 0.09 0.13 0.19 0.21 0.22 0.21 0.21 0.21 0.22 0.21 0.21 0.20 0.19 0.20 0.21 0.21 0.19 0.18 0.20 0.22 0.24 0.22 0.17 0.19 0.18 0.17 0.12 0.17 0.21 0.20 0.20 0.19 0.15 0.13 0.12 0.12 0.15 0.17 0.17 0.16 0.17 0.19 0.17 0.08 0.10 0.13 0.16 0.19 0.21 0.20 0.20 0.19 0.19 0.19 0.20 0.20 0.21 0.21 0.22 0.22 0.23
0.52 0.55 0.57 0.57 0.55 0.51 0.47 0.43 0.40 0.36 0.33 0.30 0.27 0.27 0.26 0.24 0.22 0.21 0.20 0.19 0.19 0.21 0.23 0.27 0.25 0.15 0.13 0.11 0.16 0.20 0.21 0.22 0.22 0.20 0.19 0.22 0.20 0.17 0.18 0.18 0.19 0.19 0.21 0.20 0.21 0.22 0.20 0.25 0.23 0.21 0.25 0.18 0.14 0.23 0.15 0.16 0.18 0.14 0.15 0.15 0.11 0.10 0.10 0.15 0.16 0.17 0.15 0.18 0.18 0.18 0.08 0.10 0.13 0.16 0.20 0.21 0.21 0.19 0.18 0.19 0.20 0.20 0.20 0.21 0.21 0.22 0.22 0.23
0.52 0.51 0.51 0.51 0.50 0.48 0.45 0.41 0.37 0.34 0.32 0.28 0.27 0.26 0.25 0.23 0.23 0.23 0.22 0.20 0.21 0.24 0.28 0.30 0.23 0.17 0.11 0.12 0.18 0.20 0.23 0.23 0.19 0.19 0.21 0.19 0.18 0.15 0.16 0.18 0.17 0.18 0.19 0.20 0.20 0.21 0.22 0.20 0.21 0.18 0.17 0.23 0.22 0.16 0.12 0.12 0.14 0.15 0.13 0.08 0.12 0.09 0.10 0.13 0.18 0.17 0.14 0.17 0.18 0.15 0.09 0.10 0.14 0.16 0.20 0.21 0.21 0.20 0.19 0.19 0.20 0.20 0.21 0.21 0.21 0.22 0.22 0.23
0.47 0.46 0.49 0.47 0.46 0.46 0.44 0.40 0.38 0.35 0.32 0.30 0.27 0.26 0.25 0.24 0.24 0.24 0.24 0.26 0.28 0.29 0.31 0.21 0.17 0.15 0.11 0.10 0.15 0.24 0.20 0.16 0.17 0.21 0.22 0.22 0.19 0.16 0.19 0.19 0.20 0.20 0.21 0.21 0.24 0.22 0.23 0.21 0.18 0.18 0.18 0.20 0.17 0.15 0.12 0.11 0.11 0.13 0.10 0.09 0.09 0.11 0.10 0.11 0.15 0.17 0.18 0.16 0.17 0.15 0.10 0.12 0.12 0.17 0.20 0.22 0.21 0.20 0.19 0.20 0.20 0.21 0.21 0.21 0.22 0.22 0.22 0.23
0.47 0.42 0.45 0.45 0.43 0.42 0.41 0.39 0.37 0.34 0.32 0.30 0.28 0.26 0.25 0.25 0.24 0.24 0.25 0.26 0.27 0.27 0.22 0.18 0.21 0.23 0.11 0.15 0.21 0.16 0.15 0.18 0.22 0.21 0.22 0.23 0.21 0.20 0.20 0.18 0.18 0.20 0.21 0.22 0.23 0.21 0.19 0.17 0.18 0.16 0.18 0.15 0.17 0.15 0.09 0.09 0.08 0.09 0.12 0.09 0.11 0.10 0.11 0.09 0.14 0.18 0.17 0.15 0.13 0.16 0.12 0.13 0.15 0.17 0.20 0.21 0.22 0.20 0.20 0.20 0.21 0.21 0.21 0.22 0.22 0.22 0.22 0.23
0.48 0.41 0.40 0.42 0.43 0.40 0.38 0.36 0.34 0.32 0.30 0.30 0.28 0.27 0.25 0.27 0.25 0.21 0.21 0.21 0.31 0.27 0.24 0.23 0.22 0.15 0.11 0.17 0.12 0.14 0.19 0.19 0.20 0.21 0.22 0.23 0.23 0.21 0.19 0.18 0.20 0.20 0.20 0.18 0.18 0.18 0.18 0.13 0.16 0.11 0.13 0.13 0.13 0.13 0.09 0.07 0.08 0.08 0.09 0.09 0.10 0.12 0.13 0.11 0.11 0.13 0.15 0.16 0.14 0.14 0.13 0.13 0.15 0.18 0.19 0.21 0.22 0.21 0.20 0.21 0.21 0.21 0.22 0.22 0.22 0.22 0.22 0.23
0.47 0.39 0.38 0.37 0.36 0.38 0.36 0.32 0.29 0.27 0.28 0.29 0.29 0.30 0.33 0.35 0.28 0.21 0.18 0.17 0.15 0.14 0.15 0.12 0.15 0.12 0.07 0.13 0.17 0.18 0.19 0.21 0.22 0.22 0.20 0.22 0.23 0.23 0.24 0.25 0.23 0.20 0.16 0.15 0.14 0.15 0.16 0.14 0.15 0.11 0.09 0.11 0.11 0.11 0.10 0.10 0.12 0.11 0.11 0.11 0.11 0.10 0.11 0.12 0.14 0.16 0.16 0.13 0.13 0.13 0.12 0.14 0.15 0.17 0.19 0.21 0.22 0.21 0.21 0.21 0.21 0.22 0.22 0.22 0.22 0.23 0.23 0.23
0.48 0.39 0.36 0.35 0.31 0.32 0.34 0.33 0.31 0.31 0.33 0.30 0.31 0.29 0.38 0.25 0.13 0.12 0.17 0.17 0.13 0.15 0.14 0.15 0.17 0.15 0.15 0.15 0.16 0.20 0.23 0.23 0.18 0.20 0.22 0.24 0.23 0.23 0.23 0.24 0.22 0.23 0.19 0.12 0.14 0.14 0.17 0.10 0.09 0.10 0.11 0.13 0.13 0.14 0.13 0.13 0.13 0.13 0.13 0.13 0.12 0.12 0.13 0.15 0.14 0.15 0.18 0.14 0.13 0.14 0.15 0.15 0.16 0.17 0.19 0.21 0.22 0.21 0.21 0.20 0.21 0.21 0.22 0.22 0.23 0.23 0.23 0.23
0.48 0.42 0.35 0.33 0.30 0.30 0.30 0.31 0.34 0.34 0.32 0.31 0.30 0.26 0.21 0.17 0.15 0.09 0.13 0.16 0.20 0.21 0.17 0.16 0.16 0.15 0.14 0.17 0.19 0.19 0.16 0.16 0.19 0.19 0.22 0.27 0.25 0.23 0.19 0.22 0.18 0.15 0.17 0.17 0.13 0.16 0.16 0.10 0.10 0.13 0.14 0.14 0.15 0.16 0.15 0.13 0.14 0.13 0.12 0.12 0.12 0.13 0.11 0.13 0.13 0.16 0.18 0.14 0.13 0.15 0.15 0.15 0.17 0.18 0.19 0.21 0.21 0.19 0.20 0.20 0.21 0.22 0.22 0.23 0.23 0.23 0.24 0.24
0.46 0.43 0.37 0.34 0.31 0.30 0.30 0.33 0.35 0.38 0.38 0.34 0.28 0.22 0.27 0.24 0.33 0.26 0.18 0.11 0.16 0.19 0.18 0.17 0.19 0.16 0.18 0.19 0.21 0.22 0.18 0.14 0.15 0.19 0.24 0.26 0.21 0.19 0.18 0.18 0.16 0.13 0.18 0.17 0.14 0.12 0.11 0.10 0.12 0.14 0.16 0.17 0.17 0.16 0.14 0.13 0.13 0.14 0.12 0.12 0.12 0.12 0.13 0.14 0.15 0.18 0.17 0.15 0.14 0.16 0.15 0.15 0.18 0.19 0.20 0.20 0.20 0.21 0.21 0.21 0.22 0.23 0.23 0.23 0.23 0.24 0.24 0.25
0.44 0.43 0.39 0.37 0.34 0.31 0.33 0.35 0.36 0.38 0.35 0.24 0.20 0.22 0.22 0.32 0.40 0.35 0.23 0.16 0.14 0.20 0.17 0.17 0.15 0.15 0.16 0.19 0.21 0.23 0.14 0.13 0.12 0.18 0.21 0.24 0.19 0.18 0.17 0.15 0.15 0.16 0.17 0.17 0.12 0.10 0.09 0.12 0.14 0.16 0.17 0.15 0.15 0.15 0.13 0.13 0.14 0.13 0.13 0.11 0.10 0.12 0.11 0.10 0.14 0.16 0.17 0.16 0.14 0.15 0.15 0.16 0.18 0.19 0.19 0.20 0.20 0.21 0.22 0.22 0.23 0.24 0.23 0.24 0.24 0.24 0.25 0.25
0.45 0.39 0.38 0.38 0.37 0.36 0.36 0.34 0.37 0.27 0.24 0.23 0.22 0.23 0.34 0.39 0.36 0.34 0.28 0.13 0.12 0.16 0.18 0.19 0.18 0.16 0.16 0.15 0.20 0.20 0.15 0.15 0.17 0.16 0.25 0.23 0.18 0.21 0.17 0.15 0.14 0.14 0.12 0.14 0.13 0.11 0.10 0.14 0.17 0.17 0.16 0.14 0.13 0.14 0.12 0.12 0.11 0.13 0.13 0.12 0.11 0.12 0.13 0.13 0.13 0.16 0.17 0.17 0.19 0.17 0.14 0.14 0.16 0.16 0.17 0.19 0.21 0.21 0.21 0.22 0.23 0.24 0.24 0.25 0.25 0.26 0.26 0.26
0.43 0.36 0.36 0.37 0.36 0.37 0.36 0.35 0.26 0.24 0.27 0.23 0.22 0.31 0.33 0.34 0.32 0.32 0.21 0.17 0.17 0.14 0.25 0.23 0.22 0.16 0.19 0.23 0.24 0.18 0.19 0.18 0.19 0.22 0.24 0.24 0.20 0.19 0.16 0.21 0.17 0.12 0.13 0.15 0.14 0.12 0.12 0.16 0.19 0.17 0.15 0.14 0.13 0.12 0.13 0.13 0.10 0.12 0.14 0.13 0.13 0.14 0.13 0.14 0.15 0.14 0.13 0.13 0.17 0.15 0.10 0.10 0.15 0.16 0.16 0.18 0.20 0.20 0.21 0.21 0.22 0.23 0.24 0.25 0.25 0.25 0.27 0.28
0.40 0.37 0.36 0.35 0.34 0.35 0.37 0.28 0.23 0.31 0.24 0.19 0.23 0.34 0.36 0.35 0.39 0.32 0.21 0.12 0.08 0.14 0.22 0.11 0.23 0.13 0.25 0.17 0.22 0.19 0.20 0.14 0.21 0.22 0.25 0.24 0.28 0.22 0.20 0.16 0.21 0.12 0.14 0.15 0.15 0.14 0.14 0.18 0.18 0.16 0.15 0.14 0.14 0.13 0.14 0.14 0.11 0.11 0.11 0.15 0.15 0.15 0.15 0.14 0.14 0.14 0.10 0.10 0.14 0.18 0.11 0.09 0.14 0.15 0.16 0.18 0.19 0.19 0.21 0.21 0.23 0.23 0.24 0.25 0.25 0.26 0.27 0.28
0.40 0.36 0.35 0.35 0.35 0.36 0.26 0.22 0.29 0.29 0.19 0.20 0.31 0.37 0.36 0.35 0.38 0.35 0.13 0.09 0.07 0.17 0.12 0.17 0.19 0.17 0.23 0.20 0.20 0.20 0.09 0.12 0.23 0.24 0.24 0.25 0.21 0.29 0.16 0.14 0.18 0.20 0.20 0.19 0.17 0.12 0.17 0.16 0.17 0.17 0.15 0.14 0.13 0.12 0.14 0.15 0.12 0.11 0.15 0.16 0.16 0.15 0.14 0.14 0.14 0.14 0.13 0.17 0.18 0.17 0.15 0.11 0.10 0.14 0.17 0.18 0.18 0.19 0.20 0.21 0.23 0.23 0.24 0.24 0.25 0.26 0.27 0.28
0.41 0.36 0.33 0.34 0.34 0.35 0.22 0.30 0.24 0.20 0.25 0.38 0.38 0.34 0.37 0.36 0.36 0.29 0.14 0.05 0.04 0.17 0.11 0.14 0.16 0.25 0.23 0.22 0.21 0.15 0.15 0.21 0.14 0.19 0.25 0.24 0.24 0.20 0.17 0.15 0.14 0.15 0.18 0.18 0.09 0.14 0.16 0.14 0.15 0.14 0.14 0.14 0.13 0.14 0.16 0.17 0.13 0.13 0.16 0.17 0.16 0.16 0.15 0.15 0.15 0.14 0.15 0.14 0.12 0.14 0.16 0.11 0.11 0.14 0.17 0.18 0.16 0.18 0.19 0.21 0.22 0.23 0.24 0.25 0.25 0.26 0.27 0.29
0.40 0.36 0.34 0.31 0.35 0.35 0.36 0.29 0.23 0.20 0.31 0.40 0.36 0.38 0.31 0.36 0.29 0.16 0.12 0.05 0.16 0.13 0.30 0.14 0.27 0.21 0.20 0.24 0.16 0.18 0.16 0.20 0.12 0.19 0.23 0.25 0.25 0.19 0.15 0.17 0.18 0.18 0.20 0.19 0.12 0.15 0.17 0.17 0.17 0.17 0.15 0.14 0.15 0.17 0.18 0.17 0.14 0.16 0.18 0.19 0.18 0.18 0.17 0.17 0.15 0.15 0.14 0.12 0.10 0.12 0.15 0.11 0.10 0.15 0.15 0.17 0.17 0.17 0.19 0.21 0.22 0.23 0.24 0.25 0.25 0.26 0.27 0.29
0.39 0.35 0.33 0.31 0.30 0.29 0.27 0.28 0.23 0.35 0.33 0.35 0.36 0.34 0.34 0.23 0.19 0.11 0.07 0.05 0.18 0.08 0.16 0.18 0.16 0.15 0.20 0.16 0.13 0.16 0.14 0.17 0.19 0.21 0.20 0.17 0.20 0.23 0.21 0.26 0.19 0.17 0.15 0.18 0.17 0.17 0.19 0.23 0.24 0.18 0.16 0.17 0.18 0.19 0.19 0.18 0.18 0.20 0.19 0.17 0.16 0.17 0.16 0.16 0.15 0.15 0.13 0.09 0.11 0.13 0.15 0.14 0.09 0.13 0.14 0.15 0.16 0.18 0.19 0.20 0.22 0.23 0.24 0.25 0.25 0.26 0.27 0.28
0.38 0.35 0.32 0.31 0.28 0.30 0.28 0.19 0.24 0.33 0.34 0.36 0.34 0.34 0.30 0.20 0.12 0.09 0.05 0.08 0.14 0.14 0.16 0.13 0.12 0.18 0.13 0.13 0.10 0.15 0.15 0.15 0.16 0.18 0.14 0.17 0.15 0.18 0.19 0.17 0.22 0.17 0.17 0.16 0.15 0.17 0.18 0.20 0.18 0.20 0.23 0.22 0.21 0.17 0.22 0.21 0.20 0.18 0.16 0.15 0.15 0.14 0.15 0.14 0.13 0.15 0.10 0.09 0.12 0.15 0.15 0.15 0.10 0.12 0.16 0.18 0.19 0.20 0.20 0.20 0.21 0.22 0.23 0.24 0.25 0.26 0.28 0.28
0.37 0.36 0.31 0.28 0.30 0.36 0.21 0.20 0.26 0.33 0.34 0.34 0.32 0.21 0.19 0.09 0.12 0.07 0.07 0.19 0.07 0.11 0.12 0.12 0.14 0.14 0.13 0.14 0.12 0.12 0.11 0.13 0.16 0.16 0.13 0.14 0.13 0.12 0.14 0.11 0.15 0.10 0.10 0.13 0.11 0.17 0.15 0.16 0.20 0.20 0.24 0.21 0.18 0.16 0.18 0.19 0.19 0.17 0.16 0.15 0.12 0.10 0.10 0.08 0.11 0.09 0.09 0.09 0.13 0.15 0.15 0.13 0.13 0.15 0.17 0.18 0.19 0.20 0.21 0.21 0.21 0.22 0.23 0.24 0.25 0.26 0.28 0.29
0.36 0.36 0.32 0.27 0.28 0.26 0.28 0.31 0.34 0.32 0.33 0.32 0.23 0.21 0.12 0.09 0.06 0.09 0.08 0.10 0.07 0.15 0.10 0.15 0.13 0.14 0.15 0.13 0.10 0.13 0.17 0.10 0.16 0.15 0.17 0.16 0.13 0.14 0.16 0.15 0.17 0.14 0.09 0.12 0.12 0.12 0.13 0.19 0.20 0.20 0.21 0.23 0.19 0.15 0.14 0.14 0.17 0.16 0.15 0.14 0.11 0.09 0.08 0.07 0.09 0.10 0.10 0.12 0.16 0.15 0.16 0.12 0.14 0.16 0.19 0.19 0.20 0.21 0.22 0.22 0.22 0.22 0.23 0.23 0.25 0.27 0.28 0.29
0.35 0.34 0.26 0.27 0.26 0.26 0.29 0.32 0.30 0.31 0.28 0.25 0.21 0.13 0.12 0.07 0.07 0.15 0.11 0.10 0.09 0.15 0.15 0.12 0.13 0.15 0.13 0.10 0.10 0.13 0.11 0.15 0.14 0.14 0.16 0.13 0.13 0.11 0.14 0.16 0.17 0.15 0.15 0.13 0.11 0.11 0.09 0.10 0.15 0.17 0.15 0.21 0.19 0.17 0.17 0.16 0.17 0.17 0.18 0.16 0.14 0.12 0.10 0.08 0.09 0.08 0.09 0.10 0.13 0.16 0.12 0.11 0.11 0.14 0.19 0.20 0.21 0.21 0.22 0.22 0.22 0.23 0.23 0.24 0.26 0.27 0.28 0.29
0.35 0.33 0.33 0.29 0.27 0.27 0.27 0.29 0.29 0.31 0.26 0.21 0.15 0.11 0.07 0.07 0.08 0.08 0.08 0.10 0.10 0.13 0.11 0.15 0.12 0.12 0.11 0.12 0.13 0.14 0.13 0.11 0.15 0.13 0.13 0.12 0.11 0.12 0.12 0.13 0.16 0.17 0.18 0.11 0.14 0.13 0.12 0.11 0.16 0.21 0.20 0.21 0.18 0.20 0.21 0.19 0.17 0.18 0.19 0.19 0.15 0.14 0.16 0.11 0.13 0.12 0.11 0.11 0.10 0.12 0.11 0.14 0.14 0.19 0.20 0.21 0.21 0.20 0.21 0.21 0.22 0.22 0.23 0.24 0.24 0.26 0.28 0.29
0.34 0.29 0.35 0.23 0.20 0.22 0.26 0.27 0.28 0.27 0.22 0.17 0.11 0.08 0.07 0.08 0.08 0.12 0.10 0.17 0.13 0.10 0.12 0.13 0.14 0.11 0.11 0.11 0.13 0.12 0.19 0.12 0.14 0.14 0.13 0.14 0.14 0.13 0.16 0.15 0.15 0.17 0.15 0.11 0.14 0.11 0.12 0.11 0.18 0.20 0.21 0.20 0.20 0.22 0.20 0.22 0.13 0.17 0.18 0.14 0.16 0.20 0.17 0.14 0.14 0.15 0.15 0.12 0.09 0.14 0.12 0.14 0.18 0.18 0.19 0.19 0.19 0.19 0.20 0.20 0.21 0.21 0.22 0.23 0.24 0.26 0.28 0.29
0.24 0.28 0.20 0.22 0.17 0.22 0.27 0.28 0.26 0.23 0.22 0.16 0.09 0.06 0.09 0.10 0.13 0.14 0.17 0.14 0.12 0.15 0.11 0.08 0.10 0.10 0.10 0.09 0.11 0.12 0.13 0.16 0.14 0.13 0.10 0.16 0.13 0.16 0.16 0.16 0.19 0.18 0.19 0.16 0.13 0.17 0.11 0.11 0.18 0.18 0.17 0.21 0.23 0.22 0.22 0.23 0.22 0.19 0.15 0.17 0.21 0.22 0.19 0.16 0.11 0.13 0.12 0.09 0.10 0.13 0.11 0.11 0.12 0.10 0.18 0.18 0.17 0.18 0.19 0.20 0.20 0.21 0.22 0.22 0.23 0.25 0.28 0.29
0.23 0.25 0.22 0.19 0.17 0.25 0.29 0.29 0.29 0.22 0.19 0.13 0.08 0.10 0.14 0.10 0.17 0.15 0.19 0.16 0.15 0.15 0.11 0.09 0.10 0.13 0.09 0.10 0.10 0.11 0.13 0.11 0.12 0.13 0.11 0.14 0.11 0.20 0.17 0.16 0.22 0.19 0.20 0.22 0.15 0.15 0.17 0.11 0.16 0.19 0.19 0.21 0.23 0.21 0.19 0.22 0.24 0.19 0.18 0.23 0.17 0.14 0.13 0.16 0.15 0.10 0.09 0.08 0.09 0.11 0.13 0.12 0.13 0.13 0.16 0.15 0.16 0.17 0.19 0.20 0.20 0.20 0.21 0.22 0.23 0.26 0.28 0.30
0.26 0.24 0.16 0.15 0.23 0.27 0.28 0.30 0.27 0.19 0.15 0.09 0.09 0.08 0.13 0.12 0.18 0.16 0.17 0.17 0.17 0.14 0.10 0.11 0.10 0.12 0.12 0.10 0.11 0.13 0.13 0.10 0.13 0.12 0.11 0.13 0.11 0.19 0.17 0.19 0.18 0.21 0.21 0.21 0.17 0.17 0.19 0.12 0.12 0.19 0.18 0.19 0.20 0.19 0.14 0.17 0.22 0.24 0.24 0.21 0.23 0.19 0.16 0.14 0.15 0.15 0.14 0.10 0.10 0.09 0.11 0.10 0.15 0.15 0.16 0.16 0.17 0.18 0.19 0.19 0.20 0.20 0.21 0.22 0.23 0.26 0.28 0.29
0.18 0.13 0.13 0.21 0.25 0.32 0.33 0.28 0.22 0.18 0.13 0.08 0.10 0.09 0.16 0.13 0.17 0.19 0.18 0.18 0.14 0.13 0.11 0.11 0.14 0.11 0.12 0.12 0.13 0.11 0.14 0.13 0.13 0.12 0.12 0.15 0.13 0.21 0.17 0.21 0.18 0.19 0.21 0.21 0.18 0.21 0.15 0.17 0.10 0.15 0.19 0.19 0.15 0.17 0.16 0.17 0.17 0.18 0.19 0.18 0.19 0.19 0.21 0.19 0.18 0.16 0.14 0.12 0.11 0.11 0.09 0.11 0.14 0.18 0.17 0.17 0.18 0.19 0.20 0.20 0.20 0.20 0.21 0.22 0.24 0.26 0.28 0.29
0.22 0.15 0.18 0.27 0.23 0.32 0.32 0.22 0.14 0.11 0.11 0.14 0.15 0.14 0.15 0.14 0.16 0.16 0.18 0.21 0.17 0.19 0.14 0.13 0.13 0.12 0.12 0.12 0.12 0.14 0.13 0.13 0.13 0.12 0.13 0.14 0.15 0.12 0.22 0.20 0.21 0.18 0.21 0.20 0.18 0.19 0.15 0.15 0.12 0.14 0.14 0.14 0.15 0.20 0.20 0.20 0.20 0.19 0.19 0.18 0.19 0.17 0.16 0.14 0.12 0.18 0.17 0.15 0.13 0.12 0.10 0.13 0.15 0.18 0.18 0.19 0.20 0.20 0.21 0.21 0.20 0.21 0.22 0.22 0.24 0.26 0.28 0.29
0.15 0.11 0.15 0.24 0.25 0.30 0.21 0.12 0.13 0.17 0.12 0.10 0.10 0.14 0.13 0.21 0.15 0.15 0.17 0.19 0.18 0.14 0.20 0.15 0.16 0.14 0.14 0.13 0.14 0.14 0.13 0.12 0.13 0.13 0.14 0.13 0.17 0.16 0.20 0.25 0.22 0.22 0.18 0.16 0.16 0.21 0.18 0.17 0.15 0.12 0.13 0.14 0.17 0.20 0.22 0.23 0.23 0.21 0.21 0.19 0.21 0.20 0.19 0.16 0.12 0.14 0.17 0.17 0.17 0.16 0.13 0.11 0.16 0.19 0.19 0.20 0.20 0.21 0.22 0.22 0.21 0.21 0.22 0.23 0.24 0.26 0.28 0.29
0.15 0.13 0.23 0.26 0.28 0.21 0.16 0.12 0.13 0.12 0.11 0.14 0.19 0.19 0.20 0.18 0.15 0.16 0.14 0.16 0.13 0.17 0.15 0.14 0.14 0.13 0.14 0.14 0.14 0.13 0.14 0.12 0.13 0.12 0.14 0.15 0.16 0.19 0.23 0.23 0.24 0.21 0.21 0.18 0.20 0.20 0.22 0.16 0.13 0.14 0.16 0.18 0.19 0.21 0.22 0.23 0.22 0.20 0.20 0.22 0.21 0.19 0.19 0.18 0.17 0.18 0.16 0.16 0.15 0.15 0.12 0.12 0.16 0.20 0.20 0.21 0.22 0.22 0.22 0.22 0.21 0.22 0.23 0.23 0.24 0.25 0.27 0.28
0.16 0.15 0.19 0.26 0.28 0.23 0.14 0.08 0.09 0.10 0.12 0.15 0.15 0.14 0.18 0.16 0.15 0.13 0.13 0.14 0.13 0.13 0.13 0.13 0.15 0.17 0.14 0.17 0.15 0.12 0.16 0.11 0.15 0.15 0.14 0.17 0.15 0.25 0.23 0.23 0.24 0.19 0.19 0.18 0.17 0.23 0.15 0.16 0.15 0.12 0.11 0.12 0.15 0.18 0.19 0.21 0.21 0.19 0.19 0.21 0.21 0.22 0.22 0.21 0.20 0.20 0.16 0.15 0.17 0.15 0.10 0.11 0.16 0.20 0.21 0.21 0.22 0.22 0.22 0.23 0.23 0.22 0.23 0.23 0.24 0.25 0.26 0.28
0.17 0.20 0.18 0.22 0.21 0.16 0.10 0.15 0.12 0.10 0.10 0.10 0.11 0.10 0.11 0.13 0.16 0.15 0.14 0.12 0.16 0.14 0.13 0.12 0.14 0.15 0.14 0.17 0.14 0.16 0.16 0.14 0.12 0.16 0.15 0.16 0.16 0.23 0.23 0.23 0.24 0.21 0.24 0.26 0.23 0.25 0.17 0.16 0.14 0.11 0.09 0.08 0.08 0.09 0.11 0.13 0.16 0.19 0.20 0.20 0.21 0.21 0.21 0.20 0.17 0.17 0.15 0.16 0.17 0.15 0.13 0.14 0.17 0.20 0.20 0.22 0.22 0.22 0.23 0.23 0.23 0.23 0.23 0.24 0.24 0.24 0.25 0.27
0.12 0.08 0.16 0.17 0.17 0.16 0.15 0.19 0.14 0.11 0.09 0.09 0.08 0.09 0.11 0.09 0.13 0.17 0.17 0.14 0.16 0.15 0.14 0.15 0.16 0.16 0.14 0.14 0.12 0.13 0.13 0.17 0.14 0.13 0.14 0.14 0.16 0.19 0.22 0.23 0.23 0.23 0.23 0.24 0.23 0.22 0.16 0.17 0.16 0.14 0.13 0.12 0.13 0.14 0.18 0.19 0.18 0.16 0.18 0.20 0.20 0.22 0.22 0.21 0.20 0.17 0.15 0.16 0.15 0.16 0.16 0.15 0.16 0.16 0.19 0.21 0.22 0.21 0.21 0.22 0.22 0.23 0.24 0.24 0.24 0.24 0.25 0.27
0.14 0.09 0.11 0.08 0.12 0.15 0.11 0.14 0.12 0.11 0.08 0.11 0.07 0.10 0.08 0.09 0.10 0.11 0.18 0.11 0.15 0.13 0.13 0.13 0.13 0.11 0.12 0.12 0.11 0.12 0.14 0.14 0.16 0.15 0.14 0.14 0.17 0.19 0.23 0.22 0.23 0.24 0.24 0.23 0.24 0.20 0.17 0.15 0.16 0.16 0.15 0.15 0.16 0.16 0.18 0.19 0.17 0.18 0.18 0.19 0.21 0.21 0.21 0.20 0.18 0.16 0.20 0.18 0.14 0.16 0.18 0.17 0.16 0.18 0.20 0.21 0.21 0.21 0.21 0.21 0.22 0.23 0.23 0.24 0.24 0.24 0.25 0.27
0.09 0.13 0.14 0.14 0.08 0.08 0.08 0.08 0.11 0.09 0.10 0.10 0.08 0.10 0.08 0.08 0.09 0.07 0.12 0.14 0.16 0.15 0.10 0.12 0.13 0.12 0.12 0.11 0.13 0.10 0.13 0.13 0.14 0.12 0.16 0.16 0.16 0.18 0.17 0.22 0.20 0.23 0.23 0.21 0.23 0.19 0.16 0.14 0.16 0.16 0.16 0.17 0.18 0.18 0.19 0.19 0.19 0.19 0.19 0.20 0.20 0.21 0.21 0.19 0.19 0.21 0.21 0.17 0.15 0.17 0.19 0.18 0.18 0.20 0.21 0.22 0.22 0.22 0.21 0.22 0.23 0.24 0.24 0.24 0.24 0.24 0.25 0.27
0.14 0.13 0.12 0.17 0.08 0.10 0.08 0.10 0.12 0.10 0.08 0.09 0.08 0.09 0.07 0.07 0.07 0.08 0.08 0.09 0.11 0.11 0.12 0.07 0.09 0.11 0.12 0.13 0.12 0.10 0.12 0.09 0.10 0.14 0.14 0.14 0.15 0.15 0.14 0.17 0.22 0.24 0.23 0.21 0.21 0.22 0.18 0.15 0.16 0.17 0.16 0.17 0.18 0.19 0.19 0.18 0.18 0.18 0.19 0.20 0.21 0.21 0.21 0.21 0.21 0.22 0.21 0.20 0.20 0.20 0.19 0.19 0.20 0.22 0.23 0.23 0.24 0.23 0.23 0.23 0.24 0.24 0.25 0.25 0.24 0.24 0.26 0.28
0.10 0.08 0.08 0.11 0.10 0.09 0.10 0.11 0.10 0.09 0.07 0.09 0.06 0.07 0.07 0.07 0.07 0.09 0.11 0.09 0.07 0.08 0.14 0.09 0.09 0.12 0.12 0.12 0.12 0.10 0.11 0.12 0.12 0.11 0.14 0.14 0.14 0.15 0.14 0.15 0.16 0.22 0.23 0.19 0.20 0.22 0.18 0.14 0.22 0.19 0.15 0.15 0.18 0.19 0.19 0.19 0.19 0.17 0.18 0.20 0.21 0.22 0.22 0.23 0.22 0.23 0.23 0.21 0.21 0.20 0.20 0.19 0.22 0.25 0.25 0.25 0.26 0.25 0.24 0.23 0.24 0.25 0.26 0.26 0.25 0.26 0.28 0.30
0.19 0.17 0.14 0.08 0.07 0.08 0.09 0.10 0.09 0.08 0.06 0.08 0.06 0.07 0.08 0.08 0.07 0.09 0.09 0.12 0.09 0.08 0.10 0.09 0.10 0.11 0.13 0.12 0.12 0.12 0.14 0.14 0.15 0.15 0.16 0.16 0.13 0.16 0.14 0.15 0.19 0.17 0.20 0.19 0.20 0.21 0.19 0.16 0.18 0.17 0.14 0.13 0.17 0.17 0.18 0.18 0.18 0.18 0.18 0.20 0.21 0.21 0.20 0.22 0.21 0.23 0.22 0.20 0.20 0.20 0.19 0.19 0.22 0.25 0.26 0.27 0.26 0.25 0.23 0.23 0.23 0.25 0.27 0.27 0.27 0.28 0.30 0.32
0.17 0.20 0.20 0.12 0.07 0.11 0.07 0.10 0.09 0.08 0.05 0.08 0.07 0.08 0.08 0.08 0.09 0.10 0.08 0.13 0.14 0.15 0.13 0.12 0.12 0.11 0.11 0.11 0.10 0.12 0.16 0.17 0.17 0.18 0.19 0.19 0.20 0.19 0.19 0.19 0.20 0.18 0.18 0.18 0.21 0.19 0.19 0.17 0.16 0.16 0.13 0.13 0.16 0.18 0.17 0.17 0.17 0.15 0.18 0.20 0.21 0.22 0.23 0.24 0.24 0.25 0.23 0.23 0.20 0.18 0.18 0.22 0.25 0.26 0.25 0.24 0.25 0.24 0.23 0.22 0.23 0.25 0.28 0.28 0.29 0.30 0.32 0.34
Wind_Speed
2 2 1 2 2 2 2 2 2 2 2 3 3 3 4 5 6 7 6 5 6 6 6 6 7 7 7 7 7 6 6 6 6 7 7 5 4 3 3 3 3 3 3 3 3 3 3 3 2 2 3 3 3 3 3 4 4 4 3 4 4 4 5 4 5 6 7 8 10 11 10 9 9 9 10 12 13 11 12 13 13 14 14 14 12 12 13 14
2 2 2 2 2 2 2 2 2 2 3 3 3 3 4 5 6 7 6 5 6 6 6 7 8 8 7 7 6 5 5 6 6 6 6 4 4 4 3 3 3 3 3 3 3 3 3 2 2 3 3 3 3 3 3 4 5 4 3 4 3 3 5 5 5 7 8 8 10 11 11 10 11 11 11 12 12 11 12 13 13 13 14 14 13 14 15 16
3 2 2 2 2 3 3 3 2 2 3 3 3 3 4 6 7 7 6 6 7 7 8 8 8 8 7 6 5 5 5 5 5 4 3 4 4 4 3 3 3 2 3 2 2 2 2 1 2 3 3 3 3 4 4 5 5 4 4 5 4 3 5 7 6 7 9 10 10 11 11 12 12 11 11 10 11 13 12 12 14 13 13 14 14 15 16 17
3 3 3 2 2 3 3 2 2 2 3 3 3 4 5 6 7 7 6 7 8 8 9 9 8 7 6 5 5 5 5 4 4 2 2 3 4 3 3 3 2 2 2 2 2 2 1 1 2 3 3 3 4 4 5 5 5 5 5 4 4 4 6 7 7 8 10 11 10 10 10 12 12 11 10 10 12 15 14 13 14 13 13 14 15 16 17 18
4 3 3 3 3 3 3 2 2 2 3 4 4 5 6 7 7 7 7 8 8 9 9 8 7 7 6 4 4 5 4 4 2 1 2 3 3 3 3 2 2 2 2 2 2 2 2 2 2 3 4 3 4 5 4 5 5 6 6 4 3 4 7 8 8 9 10 11 11 10 10 10 11 12 12 11 12 14 15 15 14 13 13 14 15 16 18 19
4 4 3 3 3 3 3 2 2 3 4 4 4 5 6 6 6 7 8 9 9 9 8 8 7 6 5 4 4 5 5 4 2 1 2 2 2 2 2 2 3 3 2 3 3 3 3 3 3 3 4 4 4 4 4 5 5 5 7 6 4 4 6 8 9 10 11 12 12 11 10 10 11 12 13 12 12 14 14 14 13 14 14 15 16 17 18 20
4 4 3 3 3 3 3 2 2 3 4 4 4 5 6 6 7 8 9 9 9 8 8 8 7 6 6 5 5 5 6 4 1 1 1 2 2 2 2 2 3 3 3 3 3 2 3 4 4 3 4 4 3 4 5 6 7 6 7 7 5 5 6 8 9 11 12 12 12 11 10 10 10 11 13 13 13 13 14 13 13 14 15 16 17 18 19 21
4 4 4 3 3 4 3 2 2 3 4 4 5 5 6 6 8 9 9 9 9 8 7 7 6 6 6 5 5 5 4 3 1 1 1 1 2 2 3 3 4 4 4 4 3 2 2 4 3 2 3 3 3 4 5 7 8 7 7 7 6 6 7 8 10 10 12 11 11 12 12 12 11 11 12 13 12 13 13 13 14 15 16 17 18 19 20 22
4 5 4 4 4 4 3 2 3 3 4 4 5 6 7 8 9 9 9 9 8 7 6 5 6 6 6 5 5 4 3 2 1 1 1 2 2 3 3 3 4 4 4 4 4 3 3 3 3 2 2 3 4 5 6 6 7 7 6 6 7 7 8 9 10 10 11 10 11 12 12 11 11 12 14 13 12 13 13 14 15 16 17 19 20 21 21 23
4 4 4 4 4 4 3 3 3 4 4 5 6 7 8 9 9 9 9 8 8 7 5 4 5 6 6 5 5 4 3 2 2 2 2 2 3 3 4 3 4 4 4 5 6 5 3 2 2 2 3 3 5 6 7 6 5 6 7 7 8 8 9 9 9 10 11 11 11 11 11 12 12 14 15 14 12 13 13 15 16 17 18 20 21 22 22 23
3 4 4 4 4 4 4 3 3 4 5 6 7 8 9 9 8 8 8 8 7 6 5 5 5 6 6 5 6 5 3 3 3 3 3 3 3 3 3 3 4 4 4 5 5 5 4 2 2 2 3 4 5 6 7 6 6 6 7 8 10 10 10 10 9 10 12 12 11 11 13 15 16 15 14 12 13 14 14 15 17 18 20 21 22 23 24 24
2 3 3 4 4 4 4 4 4 5 6 7 7 8 9 8 8 8 8 8 6 5 5 5 5 6 6 6 6 5 3 3 3 3 3 3 3 3 3 3 4 4 4 5 5 5 4 3 3 3 3 4 5 6 6 6 7 7 8 9 12 12 11 12 11 11 12 12 12 12 15 17 17 16 13 12 13 14 15 16 18 19 20 21 23 24 24 25
2 2 3 4 4 5 5 5 5 6 6 7 8 9 8 8 8 7 7 6 5 5 5 4 5 5 5 5 5 4 4 3 3 3 3 2 2 3 3 3 4 4 5 5 5 6 6 4 4 3 4 4 5 6 6 8 8 8 9 9 11 13 12 12 12 13 13 13 13 14 17 18 18 16 13 13 14 14 16 17 18 20 21 22 23 24 25 25
1 2 3 5 5 5 6 6 6 6 6 7 8 8 8 8 7 7 6 5 5 5 5 5 5 5 6 5 5 4 4 3 3 3 2 2 2 2 3 3 3 3 4 5 5 6 7 5 4 4 4 5 5 6 7 9 9 9 10 11 11 12 12 14 14 14 14 14 14 15 17 18 18 17 14 14 14 15 16 17 19 20 21 23 24 25 26 26
1 2 4 5 5 6 6 6 5 6 7 8 8 8 7 7 6 5 5 5 5 5 5 5 5 5 6 5 5 4 4 3 3 2 2 3 3 3 3 3 3 3 3 4 4 5 7 5 5 5 5 6 6 6 8 9 10 10 10 11 13 12 13 16 15 14 14 15 15 15 17 18 19 17 15 15 16 16 17 18 19 21 22 23 24 25 26 27
1 2 4 5 6 6 6 5 6 7 8 8 8 7 7 6 5 5 6 6 5 4 5 5 5 5 5 5 5 4 3 3 2 2 2 3 3 3 3 3 3 4 4 4 5 5 6 6 6 6 6 7 7 7 8 9 10 11 10 11 13 13 14 16 15 14 15 16 16 16 17 18 19 18 16 15 16 17 18 18 20 21 23 24 25 26 27 28
2 3 4 5 5 5 5 5 6 7 8 8 7 7 6 4 4 5 6 6 5 4 5 5 5 5 5 5 4 3 2 2 1 2 2 2 3 2 3 3 3 4 4 5 6 5 6 6 6 6 7 7 7 7 8 10 11 12 12 12 13 14 14 15 16 16 16 16 17 17 17 18 19 18 17 16 17 17 18 19 20 22 23 24 25 27 28 29
2 3 4 5 5 5 5 6 8 8 8 7 6 5 4 4 4 6 6 5 5 5 5 5 4 5 4 4 4 3 2 1 1 2 2 2 2 2 2 3 3 4 4 5 6 6 6 7 6 6 7 8 8 8 8 9 10 10 12 13 14 15 15 16 17 16 17 17 18 18 18 19 19 19 18 17 17 18 19 20 21 22 24 25 26 27 28 29
3 4 4 5 5 5 6 8 8 8 7 6 5 4 4 4 5 5 5 5 5 5 4 4 4 5 5 4 3 3 3 1 1 2 1 2 2 2 2 3 3 4 4 4 6 7 6 6 7 7 7 9 8 8 7 9 9 9 11 12 13 15 16 17 17 17 17 18 18 17 17 18 19 19 19 18 18 18 20 21 22 23 24 25 26 27 28 30
3 4 4 5 5 6 7 7 6 6 5 5 5 4 4 5 5 4 4 4 5 5 5 5 5 6 5 4 3 2 3 2 1 2 2 1 1 2 3 3 4 5 4 4 5 6 6 6 7 6 7 9 9 7 8 10 9 9 11 12 14 15 17 18 18 17 17 18 18 17 17 18 18 19 19 18 18 19 20 21 22 23 24 25 27 28 29 30
4 4 4 4 5 5 6 5 5 4 4 5 4 4 5 6 5 5 4 4 5 5 5 5 5 5 5 4 2 2 3 2 1 3 3 2 1 2 3 3 4 5 6 5 5 6 6 6 7 7 7 8 8 8 10 11 10 10 12 13 16 16 18 19 17 18 19 18 19 19 19 20 20 19 19 18 18 19 20 21 22 23 24 26 27 28 29 31
4 4 4 4 4 5 5 5 5 4 4 4 5 5 6 6 6 6 5 5 5 5 4 4 4 4 4 4 2 1 2 1 1 3 4 2 2 2 3 4 3 4 6 6 6 7 8 7 7 8 8 8 9 10 11 12 11 12 13 14 17 17 19 20 18 19 20 19 21 21 21 21 21 19 19 19 19 21 21 22 23 24 25 26 27 28 29 31
4 4 3 4 4 4 5 6 5 5 4 5 6 6 7 6 6 5 5 5 5 4 4 4 4 3 3 3 2 1 1 1 1 4 5 3 2 2 2 4 4 5 7 7 5 6 7 7 8 8 9 9 10 12 13 13 13 13 13 15 17 18 19 19 19 20 20 19 21 22 22 22 20 19 20 20 21 23 23 23 25 25 25 26 27 28 30 31
3 3 3 3 4 4 5 5 5 5 5 5 6 6 6 5 4 4 4 4 4 4 4 4 4 3 3 3 2 1 1 1 2 4 5 3 3 3 3 3 4 5 7 6 5 5 7 8 8 9 10 9 10 13 13 13 15 15 14 15 17 19 18 19 20 21 21 20 20 22 23 21 19 19 21 21 22 24 24 24 26 26 26 27 28 29 30 31
3 3 3 3 3 4 5 5 5 5 5 5 6 5 5 4 3 3 4 4 4 4 4 4 4 3 3 3 3 3 2 1 2 4 4 4 3 3 4 4 5 5 7 7 6 6 8 9 9 10 11 11 10 12 13 12 15 16 15 16 18 19 20 20 21 21 21 20 21 21 22 21 21 21 21 22 23 24 25 25 26 27 27 28 29 29 30 32
3 3 3 3 3 3 5 5 5 5 5 5 5 5 4 4 3 4 4 4 4 5 4 4 4 3 3 3 4 4 3 3 3 4 4 4 4 4 4 6 6 6 7 7 7 8 9 11 11 10 11 12 12 13 13 12 14 16 16 16 17 19 21 20 20 19 19 20 22 21 19 21 23 22 22 23 23 24 26 27 28 27 27 28 29 30 31 32
2 2 3 3 3 3 4 5 5 5 5 5 5 5 4 4 4 4 4 3 4 5 4 4 5 3 3 3 3 4 4 5 4 4 4 4 5 4 5 7 7 7 7 8 9 9 9 11 12 11 12 13 13 14 14 12 14 16 16 17 19 21 21 20 18 18 19 21 22 21 18 20 23 23 24 24 24 26 27 28 28 28 28 29 29 31 32 33
2 2 3 3 3 3 3 4 4 5 5 5 5 5 4 4 4 4 4 3 4 5 4 4 4 3 3 3 2 3 4 5 4 5 5 5 6 5 5 6 6 8 9 8 9 11 10 11 12 11 12 13 14 15 14 13 15 17 18 18 21 21 20 18 17 17 20 21 21 21 19 20 22 24 24 24 24 27 28 28 28 28 28 29 30 31 33 33
3 3 3 4 3 3 3 3 4 5 5 5 5 5 4 4 4 4 4 4 5 5 4 4 4 4 4 3 3 3 4 4 4 6 6 5 6 6 6 7 6 7 9 9 9 11 11 12 12 10 12 14 15 16 15 14 16 18 19 20 20 20 19 18 16 17 20 20 20 20 20 20 23 24 24 24 25 27 27 28 28 28 28 29 30 32 33 33
4 4 3 4 4 4 4 3 4 5 5 5 5 5 4 4 4 3 4 5 4 5 5 4 4 4 4 4 5 4 4 5 6 6 6 6 7 7 7 8 7 8 10 10 10 12 12 13 13 12 13 14 16 17 16 15 17 19 20 20 20 19 19 18 17 18 19 20 20 19 20 20 23 24 23 24 25 26 27 28 29 29 29 29 31 32 33 33
4 4 4 4 5 5 4 4 5 5 5 5 5 4 4 4 4 5 5 5 5 5 5 4 5 4 3 4 5 6 5 6 7 6 7 7 8 9 8 9 9 9 11 12 12 13 14 14 13 14 14 15 16 17 17 17 18 19 19 21 21 19 19 19 19 19 18 20 21 20 21 21 21 24 25 25 26 26 26 28 28 28 29 30 31 32 33 33
4 4 4 4 5 5 4 5 5 5 5 5 5 4 4 4 5 6 6 5 4 5 5 4 5 4 4 5 5 7 7 7 7 7 7 8 8 9 9 9 10 11 11 12 13 14 14 14 14 15 15 15 15 17 18 18 19 18 19 20 20 19 20 19 19 20 19 20 21 20 23 22 22 25 26 26 27 27 26 27 28 28 29 31 32 33 33 33
5 5 4 4 4 4 5 5 5 5 5 5 4 4 4 4 6 7 6 5 4 5 4 5 5 5 5 5 6 7 7 7 8 8 8 8 8 9 10 10 10 10 11 12 13 14 14 15 15 15 15 15 15 16 18 18 18 19 19 19 19 18 20 20 21 21 21 22 22 21 22 23 24 26 25 25 28 27 27 28 28 29 30 32 33 33 33 33
5 5 5 4 4 4 5 5 5 5 5 4 4 4 4 6 7 6 6 6 6 5 5 5 5 5 5 6 7 8 7 8 9 9 9 9 9 10 11 12 11 10 11 12 13 13 14 15 15 15 16 15 16 16 16 17 18 18 18 18 18 18 18 19 20 21 22 24 24 22 21 21 25 25 23 25 28 29 29 29 29 31 32 33 34 34 34 34
5 5 5 5 4 4 5 5 5 5 5 5 4 4 6 7 7 6 6 7 6 6 6 5 5 5 6 7 8 8 8 9 9 9 10 10 10 11 12 13 12 11 12 13 14 13 14 15 16 16 16 15 16 17 17 17 17 18 18 18 20 19 18 19 20 21 22 24 24 22 21 23 26 26 25 27 29 30 29 30 30 32 33 33 34 34 34 35
5 5 5 4 4 5 5 5 5 5 5 5 3 5 7 7 6 6 6 5 5 5 6 6 5 6 8 8 8 8 8 9 10 10 11 11 11 11 12 12 13 12 12 13 14 14 14 16 17 17 17 16 17 18 18 18 17 18 19 19 20 19 18 20 22 22 22 22 23 22 24 27 28 27 27 28 30 30 30 31 31 32 33 33 34 34 35 35
4 4 5 4 4 5 5 5 5 5 5 4 4 6 7 6 6 6 6 5 5 5 5 6 7 7 7 8 9 9 9 10 10 10 11 12 12 11 12 13 13 13 13 13 14 15 15 17 18 16 16 17 17 17 18 19 18 18 19 20 20 20 20 20 22 23 22 22 24 24 26 28 27 26 28 29 30 31 31 31 32 33 33 33 34 34 35 35
4 4 4 4 4 4 5 5 5 5 4 4 5 6 6 6 6 6 6 6 6 5 5 7 7 7 8 8 9 10 10 11 11 11 11 12 12 11 11 13 14 14 14 14 15 15 16 17 18 16 16 18 18 18 19 20 19 18 19 20 20 21 21 21 21 22 23 24 25 25 26 26 25 25 28 30 30 31 32 32 32 33 33 33 34 34 35 35
4 4 4 4 4 4 4 5 5 4 4 4 6 6 5 6 6 6 6 6 6 6 6 8 8 8 8 8 10 10 11 11 11 11 12 12 12 12 12 13 14 14 15 14 15 16 16 16 17 17 17 19 19 18 19 20 20 19 20 21 21 20 20 21 21 21 21 23 25 27 26 25 25 25 27 29 31 31 32 32 32 32 32 33 33 34 34 35
4 4 4 4 3 4 4 4 4 3 4 5 6 6 5 6 6 6 7 6 6 7 7 8 8 8 9 10 10 11 11 11 11 12 12 13 13 14 13 13 13 14 15 15 15 16 16 16 17 19 19 19 19 19 19 19 19 19 20 21 22 21 21 22 22 21 20 21 23 25 26 26 26 25 26 30 31 31 31 32 32 32 33 33 33 34 34 35
3 3 4 4 3 4 3 3 3 3 4 5 5 6 6 6 6 6 7 7 7 8 8 8 8 9 10 10 11 11 11 12 12 12 13 13 14 14 13 13 14 15 16 16 16 17 17 16 17 20 20 19 20 21 19 18 18 19 20 21 21 21 21 22 23 22 21 21 21 22 25 28 27 25 27 30 31 31 31 31 32 33 33 33 33 34 34 35
3 3 4 3 3 4 3 3 4 4 4 5 5 5 6 6 6 6 7 7 7 8 8 8 9 9 10 10 11 11 11 12 13 13 13 13 13 14 14 14 15 15 16 16 17 17 17 17 18 20 20 20 21 22 20 19 19 19 20 21 21 21 20 20 22 23 22 22 22 21 24 28 27 25 27 29 30 31 31 31 32 33 33 34 34 34 34 35
3 4 4 3 3 3 2 3 4 4 4 5 5 5 6 6 6 6 7 7 8 8 8 9 9 10 10 11 11 11 12 13 12 13 14 14 14 14 14 15 15 16 16 16 17 18 18 18 19 21 22 21 22 21 20 20 21 21 22 22 22 22 22 21 22 23 23 22 22 21 23 28 29 27 28 30 31 32 32 32 33 34 34 34 34 35 35 35
3 3 3 3 3 3 3 4 4 4 5 5 5 6 6 6 6 7 7 8 8 8 9 10 10 10 11 11 11 12 13 13 13 13 14 14 15 15 15 16 16 17 17 17 18 18 19 19 20 22 23 22 21 21 21 22 22 23 23 23 23 23 22 23 23 23 23 23 20 19 24 30 30 28 29 31 31 32 32 33 34 34 35 35 35 35 35 36
3 3 3 3 3 3 4 5 4 4 5 5 5 6 6 7 7 7 8 8 9 9 9 10 11 11 11 11 12 13 13 14 14 15 15 15 16 16 17 17 17 17 18 19 19 19 20 20 20 20 20 21 22 22 23 24 24 24 24 24 24 23 21 22 22 21 23 23 20 20 26 33 33 30 30 31 31 32 34 35 34 35 35 36 36 35 35 36
2 3 3 4 4 3 4 5 4 4 5 5 6 7 7 7 8 8 8 9 9 10 10 11 11 11 12 12 13 14 14 15 15 15 16 17 17 17 17 18 18 18 19 19 19 20 20 21 21 20 21 22 24 24 24 24 25 26 25 24 24 24 22 22 21 21 23 23 23 25 30 35 37 34 33 33 32 33 35 36 36 36 37 37 36 36 35 36
2 3 3 4 4 4 4 5 4 5 6 6 6 7 7 8 9 9 9 10 10 10 11 12 12 12 13 13 14 15 15 15 15 16 17 17 18 18 18 18 19 19 19 19 20 20 20 22 22 22 24 25 25 26 26 25 27 28 27 25 24 23 22 21 23 24 23 23 27 30 29 32 36 36 35 35 35 35 37 38 38 38 38 37 36 36 36 36
3 3 3 3 4 4 4 5 5 5 6 7 7 7 8 8 9 10 10 11 11 11 12 13 13 14 13 14 14 15 16 16 17 17 17 17 18 19 19 19 19 20 19 20 21 20 20 23 23 22 25 26 26 27 27 27 27 27 26 26 25 24 22 24 26 25 23 24 30 32 30 31 35 37 36 36 37 37 39 39 39 39 38 37 36 36 36 37
2 3 3 4 4 5 5 6 5 5 6 7 7 8 8 9 10 11 10 11 12 13 13 13 15 15 15 15 14 15 16 17 18 18 17 18 18 19 19 20 19 20 20 20 21 21 21 24 24 23 26 27 26 26 26 26 26 27 27 27 26 25 24 25 26 25 25 29 33 35 35 35 35 35 36 37 39 39 40 39 39 39 39 38 36 36 37 38
3 3 4 4 4 5 5 6 5 5 7 8 8 9 9 9 11 12 11 11 12 14 13 14 16 16 15 15 15 16 17 16 17 19 17 17 19 19 19 20 19 20 21 21 22 22 22 24 24 23 26 28 25 25 25 25 25 28 29 27 25 24 24 25 25 25 26 30 33 34 36 36 34 34 35 38 39 39 39 39 39 39 39 38 37 38 38 39
4 4 4 4 5 6 6 6 6 6 8 8 9 10 10 10 11 11 12 12 13 13 13 14 15 15 15 15 16 18 19 17 17 19 18 18 20 20 20 20 19 19 21 22 22 22 23 25 25 24 27 27 25 25 26 26 27 29 29 27 23 22 23 23 24 23 24 28 31 32 33 33 33 34 35 36 37 37 38 39 40 40 39 38 38 39 40 40
4 5 5 5 6 7 6 7 7 7 9 9 9 10 11 12 12 11 12 14 13 14 14 15 14 15 15 17 18 19 19 18 19 20 19 19 20 20 21 21 19 20 21 22 23 23 22 24 25 24 26 27 26 25 27 28 28 26 24 23 22 23 23 24 24 23 24 27 29 30 30 32 34 35 36 37 37 38 39 40 40 41 41 40 40 41 42 42
Wind_Direction
202 212 230 230 228 230 240 247 247 253 245 229 225 219 210 201 193 189 184 181 177 173 167 157 150 143 135 130 127 124 121 117 110 98 94 85 70 61 53 54 52 51 62 74 79 80 79 67 50 28 30 48 53 41 36 32 29 33 32 26 14 359 354 344 339 333 336 333 327 331 334 334 334 334 334 340 349 350 348 345 340 340 340 338 337 334 331 329
216 222 232 228 229 228 237 249 253 255 238 224 221 211 197 190 187 185 180 174 170 168 164 157 152 147 139 138 139 133 131 125 108 92 85 70 53 51 49 52 58 66 73 75 80 85 87 67 33 25 35 53 40 33 38 28 29 31 29 24 2 345 352 347 343 339 341 335 329 336 339 339 333 326 328 332 334 339 344 338 336 341 339 338 336 331 328 326
224 228 233 232 231 229 238 252 256 249 233 220 212 197 186 181 179 177 171 165 162 159 154 152 151 148 146 150 153 146 145 129 103 89 75 53 45 47 48 55 67 83 85 82 89 95 108 89 31 28 45 54 35 37 37 22 22 21 27 21 349 348 359 349 349 351 348 339 337 340 344 347 339 329 331 331 331 334 335 327 328 333 331 331 330 328 325 324
226 229 239 245 237 234 238 246 248 231 212 197 190 185 182 178 175 173 171 166 161 155 152 153 153 153 156 163 165 156 144 121 106 96 62 42 42 45 52 62 73 90 97 86 84 84 79 51 38 38 56 49 25 36 30 13 18 14 19 17 348 1 6 353 354 1 355 347 344 343 349 353 345 338 332 330 336 333 325 319 321 323 323 325 324 324 323 322
224 230 243 247 237 231 228 231 235 204 187 179 177 177 177 175 177 178 171 164 160 156 156 158 159 160 164 170 172 166 145 126 129 104 48 34 38 45 60 70 67 83 102 81 68 59 46 51 46 38 50 38 19 32 21 8 26 18 7 14 5 2 0 353 357 2 355 350 350 350 352 348 343 344 337 335 337 328 323 322 321 323 323 322 321 321 321 321
219 230 241 241 229 216 208 213 208 181 176 175 172 171 169 172 178 175 165 161 161 160 161 163 165 166 164 153 149 156 149 146 155 91 37 30 42 50 72 77 60 67 89 74 59 52 43 42 46 36 39 31 22 32 16 6 26 22 4 6 4 1 360 354 1 2 355 355 353 349 349 349 354 349 340 344 341 331 331 331 329 329 325 323 322 320 319 319
212 224 231 229 215 199 193 193 181 169 174 178 172 167 166 170 168 161 157 157 159 159 159 161 162 161 156 141 125 129 134 142 149 90 33 37 58 63 85 82 58 60 70 66 57 57 45 42 49 49 46 33 23 29 20 17 27 26 7 1 2 9 5 357 5 5 1 3 357 355 357 353 354 346 340 347 343 337 337 337 337 334 329 327 324 320 318 317
204 212 215 214 205 196 193 201 188 169 177 183 174 169 167 162 153 149 149 150 153 154 152 154 157 159 157 147 134 123 120 135 151 100 43 61 83 73 87 80 57 62 67 59 51 64 57 47 45 41 42 29 27 25 15 19 19 17 9 3 4 5 3 360 4 7 7 7 4 5 0 348 348 347 343 344 341 338 338 339 339 336 332 329 325 321 318 317
196 202 205 207 206 200 194 199 193 178 182 184 175 171 165 155 147 147 147 148 151 150 147 146 155 162 157 147 139 130 130 152 151 108 83 94 95 81 85 76 59 66 68 53 45 55 60 50 31 30 50 27 30 22 10 13 3 4 11 7 5 1 358 358 358 4 5 1 3 5 356 347 347 348 343 338 337 336 337 339 336 334 333 329 326 323 319 317
188 199 206 210 208 200 190 190 192 184 183 183 177 169 161 153 149 148 148 151 152 149 144 137 148 158 157 151 138 135 150 150 129 115 106 100 96 86 80 72 63 68 65 49 46 52 58 49 22 45 55 23 20 12 6 11 0 4 15 13 10 2 353 352 351 358 359 350 352 354 344 337 335 335 336 332 331 332 336 337 333 332 331 328 327 324 321 319
183 198 209 212 207 198 191 189 187 180 181 181 174 164 159 157 154 151 152 153 151 147 142 135 137 140 142 143 132 134 148 135 122 114 106 99 96 91 80 69 62 62 57 50 48 48 48 37 28 41 23 10 11 6 4 7 5 6 13 9 0 357 354 352 346 345 350 342 340 347 340 335 335 333 332 329 326 328 333 334 332 331 330 329 327 325 323 320
189 204 210 202 197 195 189 179 169 169 173 169 162 157 156 159 158 155 154 154 152 149 148 144 144 145 138 128 124 135 143 131 122 106 101 103 101 98 87 73 62 58 54 51 44 35 33 26 36 28 -0 8 4 1 3 2 4 0 4 1 348 351 351 347 341 335 342 337 331 342 338 332 335 332 328 328 325 326 331 331 330 329 328 328 327 325 324 321
189 203 197 186 186 186 176 164 158 164 168 160 155 152 152 158 159 158 157 158 158 152 150 146 146 156 148 132 131 138 137 129 118 101 97 102 107 100 80 70 66 60 52 49 37 25 23 22 43 35 9 15 358 356 5 1 1 353 354 355 346 349 342 336 339 335 338 335 328 334 332 326 328 327 324 324 324 326 329 329 328 328 327 327 326 325 324 321
157 191 187 181 180 173 162 157 158 163 165 158 155 153 154 155 155 158 160 163 165 159 160 151 143 149 144 144 150 138 132 125 106 92 89 97 105 92 65 57 56 49 41 40 28 20 21 24 43 34 11 10 357 357 1 356 356 349 345 346 345 346 334 331 336 335 335 333 332 332 326 322 322 322 322 321 322 323 325 326 326 326 326 325 324 324 323 322
112 172 175 173 173 167 160 161 166 166 163 159 157 156 155 154 156 163 166 167 166 166 170 164 154 148 140 148 157 142 132 118 95 80 78 89 94 78 51 47 45 37 35 30 17 13 18 27 35 18 357 358 360 357 352 349 351 349 341 335 339 341 331 330 332 333 333 330 334 333 323 321 320 319 320 319 319 321 322 322 323 323 323 323 323 323 323 323
92 139 157 161 165 167 163 165 172 169 161 156 155 154 152 152 157 165 165 162 160 162 166 164 159 150 149 161 161 146 130 109 86 70 68 80 90 74 49 50 42 28 25 17 11 11 15 23 25 11 359 357 359 357 350 346 344 343 343 334 333 335 332 332 331 330 330 326 331 332 323 321 320 318 319 317 317 319 320 320 320 321 321 321 321 322 323 323
102 128 147 153 155 159 162 164 166 161 156 153 154 155 154 155 156 159 162 158 156 158 155 158 157 150 156 165 163 157 143 113 74 65 69 77 84 70 50 48 30 14 11 9 10 10 8 9 6 1 3 356 351 354 345 338 337 336 342 339 332 332 332 332 330 328 331 329 329 331 325 320 319 320 321 316 315 318 319 318 318 319 319 320 321 322 323 323
125 134 144 146 145 151 159 158 154 151 150 152 153 154 154 155 153 156 165 169 169 164 156 159 156 155 165 163 166 179 175 144 56 50 60 67 66 55 42 28 7 2 4 4 4 2 358 358 357 351 352 348 348 355 342 330 334 332 334 337 334 333 332 330 327 327 332 331 328 329 325 320 318 320 321 316 315 316 316 317 318 319 319 320 321 322 323 323
140 140 144 143 143 152 154 150 148 148 152 157 160 161 156 150 144 147 160 168 171 169 173 179 164 166 177 170 174 190 183 147 57 32 37 41 38 37 29 12 359 0 3 355 352 355 353 353 355 346 338 336 336 344 338 328 331 329 330 334 331 331 330 328 324 325 330 329 325 326 323 320 318 318 320 318 316 316 316 319 319 319 319 320 321 322 322 322
150 144 145 146 148 156 155 151 154 158 162 169 171 170 164 156 148 146 143 141 153 160 166 175 166 165 172 171 176 185 175 146 65 16 5 1 2 18 11 0 0 3 359 344 338 345 354 355 347 333 321 322 321 326 333 331 330 332 335 334 330 330 330 328 325 324 330 330 325 325 323 320 319 317 319 320 318 318 319 320 321 320 320 320 320 321 322 322
158 152 149 150 155 164 165 164 167 167 169 175 175 173 171 166 159 158 147 136 150 155 155 170 171 169 172 174 173 168 177 175 49 7 358 339 314 340 339 350 4 353 341 336 335 339 352 353 333 318 314 320 327 334 337 335 335 336 334 332 332 331 329 329 327 325 332 333 327 327 326 321 320 318 318 321 320 319 319 320 321 319 320 320 321 321 322 323
154 153 150 152 162 175 180 174 166 161 162 165 162 159 161 160 157 158 156 155 166 160 154 164 165 171 182 183 183 165 172 195 328 350 354 348 337 327 326 353 5 338 331 336 338 342 348 338 316 314 323 334 340 343 341 337 339 338 335 335 333 332 331 331 330 329 332 332 327 329 328 322 322 320 318 320 320 321 320 320 321 320 320 321 321 321 323 324
152 150 152 157 165 176 180 174 166 159 155 153 149 148 151 152 152 156 157 163 176 174 168 170 162 168 186 191 207 178 146 187 289 327 343 347 344 347 350 354 349 334 335 334 329 336 337 324 315 324 334 340 340 341 342 339 338 336 334 334 331 332 334 330 329 331 330 326 325 327 328 326 327 326 322 320 322 325 324 321 322 322 321 321 322 323 324 324
156 151 155 162 167 175 177 172 167 162 159 155 151 153 156 155 156 165 170 173 183 186 181 183 178 179 193 207 231 218 176 214 278 315 334 340 325 334 343 336 339 337 330 331 335 333 326 320 328 342 343 340 337 338 340 338 334 331 329 330 329 329 329 324 326 330 329 327 327 328 329 330 332 329 324 324 325 326 326 324 323 323 323 324 324 324 324 324
157 156 162 165 171 183 185 179 174 171 170 164 162 167 169 171 180 183 182 183 196 204 197 194 195 199 211 231 243 225 219 266 291 302 320 334 315 313 323 320 329 321 310 327 342 330 321 322 328 338 341 341 336 333 331 331 331 329 326 325 324 325 325 324 327 330 331 331 329 333 333 330 331 328 324 327 328 326 328 326 324 323 324 324 324 324 325 325
157 165 175 178 178 182 187 189 188 185 182 180 181 183 186 195 200 193 188 191 209 216 208 204 210 218 231 255 248 227 242 272 284 300 311 324 312 303 312 314 321 309 299 319 329 317 317 325 329 331 337 340 336 330 325 329 334 329 326 325 324 325 325 324 326 328 329 328 327 332 331 326 329 329 326 329 328 326 328 327 324 324 324 323 324 324 325 325
165 175 186 191 184 182 190 195 195 192 193 197 195 197 209 211 205 201 196 199 217 212 204 214 220 224 240 262 250 227 249 265 276 306 312 312 309 308 308 309 316 312 309 319 320 315 315 323 330 332 336 337 334 330 324 328 332 324 325 331 328 325 324 323 325 325 324 326 327 330 328 324 326 328 330 332 330 328 328 326 325 324 322 322 323 323 324 324
185 192 197 202 199 194 196 198 197 198 203 204 201 210 220 214 212 207 188 192 216 209 207 224 223 227 245 264 264 237 256 266 268 294 307 312 309 311 312 307 306 308 315 318 310 312 318 318 320 325 332 331 327 325 322 325 326 319 321 329 327 325 324 324 326 325 326 329 328 327 329 327 323 327 334 336 332 329 327 325 325 324 321 321 322 322 323 325
205 207 209 214 213 209 207 206 204 206 210 207 206 217 219 213 213 202 186 201 217 211 211 225 227 243 259 267 279 275 272 273 270 285 302 311 310 313 312 306 306 308 315 318 308 308 317 315 312 319 326 323 319 320 321 322 320 320 324 328 329 330 329 328 328 327 330 331 325 323 329 330 325 326 334 336 333 329 327 328 328 326 323 322 322 323 325 326
217 218 222 223 219 219 224 226 220 213 211 210 213 218 213 211 203 187 202 216 216 217 220 229 240 256 273 265 273 285 278 277 284 293 301 306 312 317 311 307 313 311 311 318 314 309 315 316 313 316 318 317 318 320 321 318 318 324 328 330 332 331 330 329 327 330 334 329 323 323 328 331 329 327 331 333 331 330 330 331 331 329 327 325 325 326 327 327
224 226 230 229 222 225 230 232 224 213 211 213 216 215 210 215 198 184 209 222 220 230 231 241 255 269 283 263 266 282 280 284 294 301 303 305 311 316 315 309 312 313 310 313 315 313 316 318 314 314 314 318 324 323 323 323 324 328 329 330 332 329 328 329 327 332 334 327 325 325 327 330 327 326 329 329 329 330 330 331 331 330 328 328 329 329 329 329
228 229 232 231 226 229 230 225 217 209 213 214 212 212 206 215 216 209 224 234 230 238 235 244 260 266 276 272 272 279 279 286 298 302 298 300 306 309 310 305 304 311 308 305 311 314 313 312 314 316 315 319 324 323 324 326 328 330 328 332 334 328 329 329 326 329 327 324 326 325 327 327 321 322 326 326 327 328 327 328 329 330 329 329 330 331 331 331
233 230 230 231 227 230 227 220 213 209 215 212 210 214 197 202 219 220 229 234 231 244 244 250 265 266 270 277 280 279 279 285 295 299 296 297 305 305 304 303 302 306 306 305 311 314 314 313 316 318 316 319 323 323 323 323 325 327 327 332 333 330 331 327 324 327 324 324 326 324 326 325 323 325 325 324 327 328 326 326 327 329 329 330 331 332 332 332
235 227 224 224 224 227 223 217 213 211 215 212 210 212 203 214 225 222 233 239 238 252 258 261 272 278 278 276 277 280 283 287 293 298 300 301 304 301 301 304 306 307 308 309 310 310 312 312 313 315 315 318 321 320 321 322 323 322 323 330 331 328 327 323 322 324 322 324 325 325 327 325 325 328 325 326 329 330 329 327 327 329 329 330 332 332 332 331
230 221 218 221 227 229 222 218 218 216 216 215 214 210 211 224 231 227 236 243 243 253 265 270 272 280 286 282 281 283 282 286 294 300 302 300 297 295 298 300 304 308 307 308 308 308 309 307 310 314 314 316 319 318 322 325 322 320 323 328 327 325 324 322 320 318 321 326 325 325 324 322 323 325 326 331 332 331 331 329 328 328 328 330 331 330 331 331
221 218 217 222 233 230 223 224 223 220 218 214 218 222 222 230 233 230 238 245 245 250 263 276 277 277 282 283 287 291 288 288 294 299 299 298 295 293 295 297 301 305 304 305 307 309 311 309 311 315 314 315 317 317 321 323 319 321 324 323 322 324 326 324 321 321 326 326 324 326 324 324 327 327 329 335 333 332 332 329 327 327 327 330 329 329 330 330
215 217 216 223 235 229 225 228 223 222 222 212 217 228 230 233 234 236 246 252 253 255 261 271 276 275 276 282 286 290 292 292 295 297 295 297 297 294 296 298 300 301 300 303 306 306 308 309 310 313 310 312 316 318 321 321 320 321 320 318 322 326 327 327 323 325 328 323 321 325 323 324 328 328 330 334 332 331 331 329 328 327 328 328 327 328 329 330
210 213 213 223 237 232 227 226 221 221 221 218 228 237 235 236 242 244 249 254 259 266 268 265 273 277 275 281 285 288 292 293 295 297 295 297 298 296 298 300 300 301 301 305 307 307 309 309 310 311 309 311 317 319 319 320 321 320 317 319 324 323 322 324 324 324 326 322 321 324 324 324 324 324 328 330 329 330 330 330 330 328 327 327 327 328 330 331
209 210 214 229 238 233 227 223 220 219 220 225 234 240 240 242 251 251 250 257 262 267 269 267 274 283 278 280 285 288 292 291 293 297 296 297 299 298 300 301 300 302 304 305 305 306 310 309 309 311 310 312 316 316 314 316 319 321 320 320 322 320 318 321 322 321 321 322 322 325 328 327 323 324 326 327 327 329 329 330 330 328 327 327 328 330 331 331
213 210 221 240 239 229 226 222 223 223 227 232 233 238 249 251 255 258 256 261 265 268 273 271 275 282 281 284 288 290 293 292 291 295 295 297 299 299 301 302 301 302 306 308 307 307 310 307 305 310 312 312 312 311 310 311 314 317 318 317 318 319 319 319 320 319 319 321 321 324 326 324 325 328 325 323 326 328 327 328 329 328 327 328 328 330 331 331
216 213 231 247 236 226 227 226 235 235 231 239 241 246 255 254 256 263 264 265 269 272 275 274 276 280 283 288 290 290 294 294 293 295 296 297 299 300 302 303 302 303 307 309 308 307 307 305 304 308 311 309 308 309 309 309 311 314 314 313 314 317 318 320 319 317 318 317 317 321 321 320 327 331 325 324 327 327 327 327 328 328 327 327 328 329 330 331
207 215 237 250 234 227 227 234 249 247 235 244 252 254 258 258 259 265 268 270 274 277 281 282 282 284 286 289 291 291 294 295 294 296 297 296 297 299 301 303 304 305 307 307 306 306 307 308 307 306 307 307 307 310 311 310 313 315 314 314 316 316 317 317 316 315 317 315 315 320 318 319 328 331 325 325 327 326 326 326 326 327 327 327 328 329 329 330
211 221 237 255 241 225 226 248 260 267 258 255 260 259 260 261 261 267 271 273 276 281 286 287 287 289 290 292 294 293 293 295 294 295 296 297 300 301 302 305 305 306 308 307 306 307 308 309 308 306 308 311 311 312 312 313 315 314 313 314 315 315 315 314 311 312 314 312 314 319 315 317 327 330 325 325 327 326 326 326 325 326 326 327 327 327 329 329
221 228 236 259 254 231 233 246 252 261 265 265 268 266 266 266 263 266 272 275 278 281 285 287 289 291 293 296 298 294 294 297 296 298 299 297 300 303 304 306 305 305 306 305 306 307 306 307 309 310 313 315 315 315 313 313 313 312 312 313 314 316 318 315 313 314 313 309 310 315 312 315 326 330 327 327 328 327 326 325 324 324 325 326 327 326 327 328
231 237 244 263 268 248 246 247 242 250 260 266 270 266 268 273 270 269 273 277 278 280 286 290 291 293 296 299 300 299 298 299 298 300 302 300 300 303 304 304 304 304 304 305 306 306 304 305 307 308 310 310 310 311 310 311 312 311 312 312 312 314 313 312 313 313 311 309 309 309 309 314 323 327 327 327 327 325 325 325 325 324 324 325 325 325 326 327
237 244 257 272 279 268 263 264 258 257 259 263 273 273 270 276 280 278 279 281 283 283 288 291 292 296 298 298 298 298 298 300 302 301 301 300 300 303 303 303 304 304 304 306 307 307 306 305 304 301 300 301 303 306 308 311 311 309 309 309 308 309 309 311 312 307 305 309 307 304 306 312 317 321 324 326 325 325 326 326 325 324 324 325 324 324 325 325
247 246 256 271 280 281 284 282 275 274 268 265 274 277 273 279 287 287 283 284 287 287 289 293 293 292 294 294 296 297 298 302 303 301 300 299 300 303 302 302 304 304 304 305 306 307 307 305 302 299 297 299 303 305 307 309 307 305 306 307 306 306 307 306 302 302 307 310 307 308 310 311 314 319 322 324 324 325 326 325 324 324 324 324 324 324 323 324
262 256 260 270 275 275 284 286 280 281 281 278 282 283 280 283 287 286 285 289 292 289 290 295 292 288 288 291 295 298 299 302 301 300 301 301 302 305 305 303 303 304 305 306 306 306 305 303 302 302 301 302 304 304 304 305 305 305 305 305 304 304 301 298 297 300 304 301 302 310 313 310 313 318 320 321 322 323 323 323 323 323 323 323 323 323 322 322
270 270 276 283 280 274 282 289 285 284 287 290 290 287 282 281 283 285 289 294 296 292 289 292 292 288 288 292 296 298 297 300 302 300 301 302 302 304 305 303 304 305 305 305 305 305 303 303 304 305 305 305 305 303 303 304 306 306 305 303 302 301 298 297 298 300 300 298 301 307 309 310 314 316 317 318 319 320 321 322 322 321 321 321 321 321 320 320
272 273 277 288 292 289 293 297 293 291 294 296 294 290 286 282 283 289 292 290 293 294 292 291 291 291 291 292 295 295 292 294 299 299 299 302 303 302 302 302 304 306 306 305 305 305 303 303 306 308 307 307 308 309 308 306 306 307 306 303 302 302 301 300 302 305 304 302 305 308 309 311 314 315 316 316 317 319 321 321 320 320 320 320 320 319 319 319
274 277 279 285 294 295 296 298 297 296 297 296 291 291 292 287 284 289 294 292 292 292 289 288 291 297 299 295 292 293 293 293 296 297 297 299 301 301 301 302 303 304 304 303 304 304 303 304 308 310 308 307 311 314 312 310 309 308 306 304 304 306 306 305 307 308 306 306 310 312 312 313 316 318 319 317 318 319 320 319 319 320 320 320 319 318 318 318
282 287 287 288 294 294 293 297 301 298 294 292 290 291 294 294 290 291 296 298 297 295 292 289 293 299 301 296 292 293 295 295 296 298 298 300 302 303 303 302 302 302 302 302 304 304 303 304 306 308 307 306 310 313 313 314 315 311 307 307 309 310 308 309 310 308 307 310 313 313 312 315 318 320 319 319 319 319 318 319 320 320 319 319 318 317 317 317